#timestamp,LO_Frequency,Hit,StdDev 
1515078015.7,286047000.8,N
1515078035.6,286046998.7,N
1515078055.4,286046997.6,N
1515078075.2,286046996.2,N
1515078095.1,286046993.4,N
1515078096.0,286046993.4,N
1515078115.8,286046993.3,N
1515078135.6,286046992.8,N
1515078155.5,286046994.8,N
1515078175.3,286046991.1,N
1515078195.1,286046988.6,Y
1515078215.9,286046995.7,P
1515078235.7,286046995.9,P
1515078255.5,286046994.7,P
1515078275.4,286046994.5,Y
1515078295.2,286046998.6,P
1515078315.0,286046996.6,N
1515078315.9,286046996.6,N
1515078335.8,286046996.5,Y
1515078355.6,286047006.0,P
1515078375.4,286047005.5,N
1515078395.2,286047003.1,N
1515078415.1,286047003.4,N
1515078416.0,286047003.4,N
1515078435.8,286047004.3,N
1515078455.6,286047002.2,N
1515078475.5,286047003.8,N
1515078495.3,286047005.3,N
1515078515.1,286047003.9,N
1515078535.9,286047003.3,N
1515078555.7,286047004.5,N
1515078575.5,286047002.9,N
1515078595.4,286047004.9,N
1515078615.2,286047006.4,Y
1515078635.0,286047001.5,P
1515078635.9,286047001.5,N
1515078655.8,286047003.5,P
1515078675.6,286047006.0,Y
1515078695.4,286046999.7,P
1515078715.3,286047001.9,N
1515078735.1,286047004.3,P
1515078755.8,286047000.6,N
1515078775.7,286047002.4,N
1515078795.5,286046999.3,N
1515078815.3,286046999.1,N
1515078835.2,286047002.7,N
1515078855.9,286047008.5,Y
1515078875.7,286047003.0,P
1515078895.6,286047003.9,P
1515078915.4,286047005.0,P
1515078935.2,286047002.9,N
1515078955.1,286047001.5,N
1515078956.0,286047001.5,N
1515078975.8,286046999.1,N
1515078995.6,286047000.9,N
1515079015.5,286047002.9,N
1515079035.3,286047005.7,Y
1515079055.1,286047005.9,P
1515079075.9,286047002.9,N
1515079095.7,286047001.6,N
1515079115.5,286047003.3,N
1515079135.4,286047002.1,N
1515079155.2,286047001.9,N
1515079175.0,286047002.6,N
1515079175.9,286047002.6,N
1515079195.8,286047004.1,Y
1515079215.6,286046996.8,P
1515079235.4,286046998.6,N
1515079255.3,286046999.5,N
1515079275.1,286046997.8,N
1515079276.0,286046997.8,N
1515079295.8,286046997.0,N
1515079315.7,286046997.8,N
1515079335.5,286046999.1,N
1515079355.3,286046997.9,N
1515079375.1,286046995.5,N
1515079395.9,286046999.4,N
1515079415.7,286046996.5,N
1515079435.5,286046994.9,N
1515079455.4,286046993.5,Y
1515079475.2,286046996.8,P
1515079495.0,286047001.2,N
1515079495.9,286047001.2,N
1515079515.8,286047000.8,N
1515079535.6,286047000.9,N
1515079555.4,286046999.6,N
1515079575.3,286046999.1,N
1515079595.1,286046995.2,Y
1515079615.8,286046993.5,P
1515079635.7,286046996.4,N
1515079655.5,286046997.5,N
1515079675.3,286046997.2,N
1515079695.2,286046998.2,N
1515079715.9,286047002.4,N
1515079735.7,286047002.8,N
1515079755.6,286046998.7,N
1515079775.4,286047001.8,N
1515079795.2,286047004.3,N
1515079815.0,286047000.0,N
1515079816.0,286047000.0,N
1515079835.8,286047001.9,N
1515079855.6,286047003.0,N
1515079875.4,286047001.5,N
1515079895.3,286047004.0,N
1515079915.1,286047005.1,N
1515079935.8,286047003.6,N
1515079955.7,286046999.9,N
1515079975.5,286047004.1,N
1515079995.3,286047005.3,N
1515080015.2,286047005.1,N
1515080035.9,286047005.5,N
1515080055.7,286047004.8,N
1515080075.6,286047006.1,N
1515080095.4,286047006.8,N
1515080115.2,286047007.6,N
1515080135.0,286047005.4,N
1515080136.0,286047005.4,N
1515080155.8,286047003.4,N
1515080175.6,286047003.1,N
1515080195.4,286047008.4,N
1515080215.3,286047007.2,N
1515080235.1,286047006.2,N
1515080255.8,286047006.4,N
1515080275.7,286047004.0,N
1515080295.5,286047001.9,N
1515080315.3,286047000.3,N
1515080335.2,286047002.7,N
1515080355.9,286047002.0,N
1515080375.7,286047002.8,N
1515080395.6,286047002.1,N
1515080415.4,286047004.0,N
1515080435.2,286047002.9,N
1515080455.0,286047005.7,N
1515080456.0,286047005.7,N
1515080475.8,286047003.1,N
1515080495.6,286047005.7,N
1515080515.4,286047003.1,N
1515080535.3,286047002.4,N
1515080555.1,286047002.9,N
1515080575.8,286047001.7,N
1515080595.7,286046998.1,N
1515080615.5,286047002.6,N
1515080635.3,286047000.1,N
1515080655.2,286046998.7,N
1515080675.9,286047002.1,N
1515080695.7,286047000.3,N
1515080715.6,286046995.6,N
1515080735.4,286046995.8,N
1515080755.2,286046991.1,Y
1515080775.1,286046989.1,P
1515080776.0,286046989.1,N
1515080795.8,286046992.0,N
1515080815.6,286046992.0,N
1515080835.5,286046992.7,N
1515080855.3,286046992.6,N
1515080875.1,286046990.5,N
1515080895.8,286046992.1,N
1515080915.7,286046993.6,N
1515080935.5,286046994.9,N
1515080955.3,286046996.8,N
1515080975.2,286046994.9,N
1515080995.0,286046992.4,N
1515080995.9,286046992.4,N
1515081015.7,286046993.1,N
1515081035.6,286046993.1,N
1515081055.4,286046993.0,N
1515081075.2,286046987.8,Y
1515081095.1,286046995.8,P
1515081096.0,286046995.8,P
1515081115.8,286046994.5,P
1515081135.6,286046996.1,Y
1515081155.5,286047000.2,P
1515081175.3,286047000.6,N
1515081195.1,286047003.5,N
1515081215.9,286047000.7,N
1515081235.7,286046995.1,N
1515081255.5,286046995.2,N
1515081275.4,286046996.5,N
1515081295.2,286047000.8,N
1515081315.0,286046997.1,N
1515081315.9,286046997.1,N
1515081335.8,286046996.8,N
1515081355.6,286046996.0,N
1515081375.4,286046994.2,N
1515081395.2,286046995.9,N
1515081415.1,286046995.4,N
1515081416.0,286046995.4,N
1515081435.8,286046999.1,N
1515081455.6,286046998.6,N
1515081475.5,286046996.7,N
1515081495.3,286046998.9,N
1515081515.1,286046996.9,N
1515081535.9,286046995.0,N
1515081555.7,286046993.6,N
1515081575.5,286046994.8,N
1515081595.4,286046995.5,N
